Location: Ellerstadt
(49.4644°N, 8.2615°E)
Time: 05:07:09
(UTC+00:00)

USA 234 - Pass Details

Date: 03 March 2021
Orbit: 1102 x 1105 km, 123.0° (Epoch: 08 April)

Event Time Altitude Azimuth Distance (km) Brightness Sun altitude
Exits shadow 17:52:35 - 66° (ENE) 3,340 5.2 -7.2°
Reaches altitude 10° 17:53:48 10° 73° (ENE) 2,965 4.9 -7.4°
Maximum altitude 17:59:04 25° 127° (SE) 2,040 4.3 -8.3°
Drops below altitude 10° 18:04:19 10° 181° (S) 2,954 5.5 -9.1°
Sets 18:07:17 0° 193° (SSW) 3,908 6.3 -9.6°
